Theta_e
293 293 293 294 293 292 291 291 291 290 291 291 287 287 289 288 283 281 287 290 288 290 293 295 296 297 297 298 298 299 300 300 300 301 300 300 300 302 303 306 307 308 310 312 313 314 314 316 316 317 319 320 320 320 320 319 320 323 334 335 335 336 337 338 342 346 347 346 345 345 345 346 347 347 347 347 347 345 344 343 343 342 342 342 341 340 340
292 293 294 294 293 292 291 291 291 292 291 290 290 290 291 289 287 289 289 289 289 292 294 296 297 299 300 301 300 301 299 300 300 299 300 300 301 302 303 304 306 309 310 311 312 314 314 314 314 314 316 317 318 319 321 321 320 321 330 333 333 334 335 337 342 345 347 346 345 345 345 345 346 347 347 347 347 345 344 343 343 342 342 342 341 341 339
290 293 294 294 294 292 290 291 292 292 292 291 291 291 290 291 289 289 289 288 288 295 298 298 298 299 300 301 301 303 299 300 299 300 300 300 300 301 302 304 305 307 308 310 311 312 313 314 315 316 318 319 319 320 321 322 322 321 323 333 334 334 333 335 339 343 346 346 345 345 344 344 345 346 346 346 346 345 344 343 342 342 342 341 341 341 340
287 292 292 293 293 292 289 289 290 291 290 287 290 288 291 288 286 288 288 286 288 295 299 298 297 297 298 298 299 301 302 304 301 300 300 300 302 302 302 303 304 305 306 308 309 311 313 315 316 317 319 320 320 321 321 321 322 323 322 326 333 334 335 336 337 340 342 343 344 343 344 343 344 345 345 346 345 345 344 342 342 342 341 341 341 341 340
286 292 294 292 290 288 285 286 289 291 291 292 292 293 294 293 291 286 284 286 292 294 296 294 295 296 297 298 300 300 301 303 303 303 304 301 302 302 303 304 304 305 306 306 309 315 320 318 316 318 319 319 320 323 326 324 323 322 322 323 329 334 337 336 335 336 336 337 338 341 343 343 344 344 344 345 345 344 343 343 342 341 340 341 341 341 340
286 291 292 291 287 280 282 292 294 294 291 291 289 289 292 295 293 288 291 291 294 293 293 292 293 295 296 298 300 301 301 301 302 304 304 303 305 305 304 304 304 305 306 310 315 321 323 319 320 321 322 322 323 324 328 328 326 325 323 320 323 331 334 336 335 334 334 334 334 337 342 343 343 342 342 343 344 345 343 342 341 341 340 340 340 340 340
286 290 290 285 280 281 292 296 297 297 296 296 294 294 295 295 294 292 290 291 292 293 293 294 294 296 298 299 299 300 302 302 303 304 305 306 305 305 305 306 306 309 317 316 317 318 318 320 324 324 323 323 324 323 324 328 329 328 327 327 326 326 331 334 334 333 333 333 333 335 337 341 342 341 342 342 343 344 343 342 341 339 339 339 339 339 339
289 287 286 279 281 290 295 297 298 300 299 296 295 293 293 293 292 292 289 291 293 293 293 293 295 296 297 298 299 301 302 304 304 304 305 306 306 305 306 307 309 312 314 317 317 317 318 319 321 319 320 322 321 321 322 325 330 331 330 327 326 327 329 331 333 333 333 333 333 333 335 339 340 340 340 342 342 343 342 342 341 340 339 339 338 339 340
284 286 285 284 289 288 292 292 294 295 292 293 291 286 290 293 296 294 292 293 295 295 295 297 296 296 297 296 298 303 305 306 307 306 306 307 307 308 308 309 309 311 313 314 314 316 321 323 321 322 323 323 322 321 320 322 328 329 330 330 329 327 328 331 330 330 332 335 333 333 333 335 338 338 339 341 342 342 341 341 340 339 338 338 339 339 339
291 286 284 285 284 280 285 294 297 300 300 299 299 294 289 295 297 298 295 294 295 296 297 298 297 295 292 291 294 300 301 303 304 306 307 308 310 309 308 308 309 311 312 312 313 320 322 323 324 324 324 324 322 321 320 321 322 326 327 327 328 327 326 330 330 330 330 332 332 331 332 333 335 339 339 341 342 341 341 340 339 339 338 338 339 338 337
288 285 282 281 280 283 291 293 297 300 300 300 300 292 286 296 298 298 297 295 296 296 296 297 296 289 287 289 293 298 300 302 304 304 305 307 308 309 310 311 311 313 316 313 312 314 320 319 321 323 325 325 323 320 319 318 320 322 327 327 327 328 329 329 331 330 330 332 331 331 330 330 334 338 338 339 341 342 341 340 339 340 337 338 338 338 338
288 286 284 283 287 284 291 295 297 299 300 301 295 281 281 294 297 299 298 296 296 297 298 298 295 287 285 287 293 300 303 304 306 306 306 307 307 308 311 312 311 313 315 315 316 317 316 318 320 321 322 322 322 320 318 318 319 320 324 330 331 331 332 334 333 332 330 330 329 329 330 331 333 338 338 339 340 341 340 340 339 339 337 337 336 337 337
287 286 285 287 287 292 297 296 298 299 300 297 284 278 286 297 299 300 298 298 298 298 298 298 294 296 296 297 300 303 306 308 308 309 309 308 309 309 311 312 310 311 311 313 313 314 315 318 320 321 321 321 321 320 319 319 321 323 327 330 334 335 334 330 329 327 326 330 333 331 331 332 335 337 338 338 340 340 339 339 338 337 336 336 336 336 336
285 286 284 284 287 293 297 298 299 300 294 283 279 292 299 299 298 299 300 298 299 299 298 298 298 300 301 302 302 303 306 308 310 310 311 311 311 312 312 311 312 313 312 314 314 314 316 317 319 320 320 321 321 320 318 317 320 327 329 333 335 334 333 330 327 326 327 328 329 329 328 327 328 333 338 339 339 340 339 338 336 336 335 333 334 334 334
289 287 284 283 279 290 300 298 296 298 288 289 297 298 299 300 298 299 300 299 300 300 298 300 300 301 301 301 302 303 307 308 309 311 311 312 312 312 312 312 312 312 312 312 312 314 315 318 319 320 321 320 320 318 317 318 324 331 333 337 334 332 330 328 330 328 328 329 328 328 327 327 326 328 334 338 339 339 338 336 335 334 334 333 333 333 333
284 284 282 282 288 294 299 297 290 295 296 299 299 298 296 299 299 299 299 299 300 300 299 300 301 302 302 302 302 303 305 308 310 311 312 313 314 313 313 312 312 312 312 312 313 316 317 318 319 320 321 321 321 320 320 322 330 334 337 335 332 330 329 328 326 329 328 327 329 328 328 329 330 329 333 337 338 337 336 335 334 333 333 332 331 331 330
287 286 289 295 297 298 299 300 298 299 300 301 300 299 298 297 298 300 299 299 300 301 301 301 303 302 302 302 303 302 304 306 308 310 311 313 313 313 313 314 314 313 313 314 313 313 315 317 321 323 323 322 322 320 321 322 325 331 334 333 330 326 326 329 331 330 329 330 330 330 331 331 330 330 331 336 336 336 335 334 334 332 332 330 329 329 329
297 297 297 298 297 297 298 302 300 299 299 300 300 299 297 299 299 300 299 300 301 300 301 302 302 303 303 302 303 303 304 305 308 311 313 311 313 315 315 315 316 315 315 317 319 318 319 321 323 324 325 324 321 321 322 322 327 334 332 330 328 326 325 324 326 327 326 326 329 329 332 333 332 334 332 334 334 335 334 334 333 331 330 329 328 328 327
291 286 296 295 295 297 299 298 299 300 300 299 300 299 298 299 300 300 301 301 300 301 302 302 302 303 303 303 303 303 303 303 306 309 310 312 312 312 312 314 315 318 318 318 318 319 320 323 323 325 325 325 324 323 325 327 324 328 330 329 326 325 325 325 324 324 323 324 326 328 330 331 334 334 333 335 334 331 333 333 332 330 329 327 326 326 325
290 289 294 295 297 297 299 297 296 296 298 299 300 300 300 301 301 301 301 301 301 302 300 301 301 303 304 303 303 304 304 304 305 308 309 310 312 313 314 314 315 315 316 317 318 319 319 321 322 323 323 323 325 326 324 325 326 329 328 327 326 326 326 325 323 322 322 312 318 326 329 329 330 333 334 335 334 332 332 332 331 329 328 325 324 325 325
293 295 295 295 295 296 296 297 297 297 298 298 298 299 300 300 300 300 301 301 301 301 301 301 301 302 303 305 305 305 305 305 304 307 309 310 311 312 313 313 313 313 316 316 317 318 318 316 318 319 319 320 322 323 324 323 323 322 324 322 323 323 324 324 324 323 322 322 322 322 324 326 328 331 333 334 333 333 335 335 333 330 329 327 325 327 326
287 287 290 294 287 287 292 295 296 298 299 298 298 298 299 299 299 299 299 299 301 302 303 301 301 301 302 304 306 305 306 306 305 306 309 310 310 311 313 313 314 314 316 316 315 316 317 317 318 316 319 320 322 323 324 323 324 324 325 325 324 323 322 321 321 321 320 321 321 321 322 323 323 324 309 311 324 333 332 318 312 313 314 326 328 328 327
286 292 294 295 294 293 294 294 297 297 298 297 296 297 298 298 299 300 298 298 299 300 301 303 301 301 301 303 306 305 305 306 306 307 309 309 309 310 312 312 312 312 315 316 315 314 318 318 319 319 319 320 322 323 324 325 325 325 326 325 323 322 322 321 317 319 318 318 321 322 322 321 321 320 319 312 298 306 315 309 306 305 307 308 310 312 322
295 296 295 296 294 291 293 296 297 297 298 297 296 297 298 298 299 299 299 300 299 299 300 301 302 301 301 303 305 305 305 306 307 307 309 310 310 310 311 312 312 312 313 315 314 313 316 316 316 316 317 319 319 321 324 326 325 326 326 324 323 323 323 322 316 316 318 317 317 320 321 322 321 321 320 317 314 298 298 302 302 304 305 305 305 305 308
292 296 297 296 294 295 297 297 297 297 298 298 296 297 297 298 299 299 299 299 300 300 299 299 301 302 301 301 302 303 304 305 307 306 307 307 306 308 309 310 310 309 310 313 315 316 317 317 317 317 318 318 321 321 322 323 323 324 325 325 323 323 323 322 320 314 316 317 316 319 321 320 320 322 320 318 314 313 304 298 300 303 304 304 303 304 306
297 296 296 296 296 296 297 297 296 296 297 297 297 297 297 298 298 298 299 299 299 300 299 300 300 301 301 300 301 302 303 303 304 306 309 308 307 307 307 308 310 309 310 310 311 310 312 314 316 317 316 318 319 320 322 322 322 321 322 322 324 321 320 322 321 320 318 317 315 314 316 317 318 320 319 318 319 315 311 308 308 303 300 302 303 302 301
297 296 295 293 293 294 296 293 292 296 297 297 297 296 297 298 298 298 299 299 299 299 298 299 299 300 300 300 300 301 301 302 305 308 309 308 306 306 307 308 310 308 307 308 309 306 305 308 310 311 312 314 317 318 319 320 321 320 320 320 322 311 299 303 321 321 319 318 319 319 318 317 316 315 315 316 314 313 314 312 311 312 311 307 300 301 305
295 295 295 291 290 292 294 296 296 296 296 296 296 295 296 297 296 296 296 296 297 297 297 298 298 298 297 298 298 299 300 301 303 307 308 308 307 307 307 307 309 308 306 305 305 305 306 307 307 307 308 311 314 316 317 317 318 319 320 320 320 318 318 316 320 320 319 316 316 317 317 317 318 316 315 313 313 313 311 311 313 311 309 309 308 300 298
294 294 296 296 296 296 296 296 296 295 295 296 296 295 295 294 294 294 294 294 295 295 295 296 298 298 297 296 297 297 298 300 303 305 307 308 308 306 306 306 308 306 304 302 303 304 305 304 304 304 305 308 313 313 316 316 315 316 316 316 313 312 312 312 316 320 319 317 316 313 306 307 313 317 315 314 314 314 314 312 308 307 308 305 303 302 299
294 295 295 296 296 296 295 293 293 294 293 294 293 294 294 294 293 293 294 294 294 293 294 296 296 296 296 296 295 296 297 298 302 306 306 308 308 307 305 305 306 305 303 301 300 301 301 301 302 301 303 305 311 311 312 314 315 315 314 314 311 307 307 307 312 315 316 315 312 301 309 312 313 313 311 312 311 312 311 310 307 306 305 305 302 305 303
294 295 296 296 295 294 293 293 293 293 293 293 293 292 293 293 293 292 292 293 293 293 294 294 295 295 295 295 296 296 297 298 302 304 305 307 309 307 305 304 302 300 301 299 298 300 300 299 299 299 302 304 311 310 311 310 313 313 312 311 312 299 293 293 300 310 311 309 310 312 311 311 311 309 306 307 308 308 307 306 305 306 304 306 306 306 303
293 293 293 292 292 292 292 293 292 292 292 293 292 291 292 291 291 291 291 291 292 293 293 293 293 294 294 296 295 294 295 296 300 302 302 304 306 308 306 303 302 297 301 299 297 297 298 297 296 297 300 302 309 310 310 310 312 311 311 305 309 309 302 296 304 306 305 306 307 309 306 309 309 309 307 307 308 307 306 305 305 304 305 305 305 305 302
291 290 290 291 291 291 291 291 291 291 292 291 291 292 292 292 292 292 292 292 291 292 292 292 293 293 294 294 294 293 293 294 297 300 300 300 303 305 306 303 301 299 299 299 297 295 296 296 294 295 296 301 308 309 307 306 309 311 311 309 309 308 300 299 297 305 305 304 305 305 306 307 308 308 307 305 306 304 307 305 304 304 305 306 308 306 301
291 290 291 291 291 290 289 290 291 291 291 292 292 291 291 291 291 291 291 291 291 291 291 291 292 293 294 293 293 291 291 291 292 295 298 298 301 302 304 301 299 297 296 296 294 292 293 295 292 292 293 301 302 306 307 303 304 311 311 311 309 307 306 304 305 305 305 305 304 302 305 302 306 306 304 305 307 307 305 304 301 304 306 307 309 305 297
294 294 294 293 293 293 293 291 291 290 290 289 290 290 291 291 291 290 290 290 290 291 292 292 292 292 293 293 291 290 290 289 291 293 296 297 299 301 302 298 296 294 292 293 291 290 292 294 291 290 291 298 299 300 303 299 299 307 311 311 307 308 307 306 304 303 303 304 304 303 302 303 304 299 302 306 306 304 304 304 305 306 305 304 302 301 297
293 293 293 293 293 293 292 292 291 291 290 290 289 289 290 290 290 290 290 290 291 291 291 291 291 292 291 291 290 290 289 289 289 291 294 297 298 300 299 295 293 290 289 289 289 289 291 292 287 286 291 295 295 296 298 295 296 299 308 310 307 307 305 303 304 304 303 304 303 302 302 298 298 300 301 304 304 305 304 304 303 303 303 301 299 298 296
294 293 293 293 292 292 292 292 291 291 290 290 289 289 289 290 290 290 291 291 291 291 290 290 290 290 290 290 290 290 290 289 288 289 292 296 298 296 296 292 291 289 287 285 286 288 291 291 287 287 291 293 293 293 294 289 292 294 306 309 308 306 305 305 305 305 305 304 304 304 301 302 304 304 302 303 303 302 302 302 298 300 299 297 296 295 294
293 293 292 292 292 292 292 292 292 291 290 290 290 290 290 289 290 290 290 290 290 290 290 290 290 290 290 290 289 289 289 288 287 288 290 293 295 294 294 291 288 288 285 284 286 288 290 288 287 288 290 290 291 291 292 288 287 293 306 308 308 306 305 305 304 303 304 305 301 305 304 303 303 303 302 303 302 300 299 299 298 297 297 296 296 296 295
292 293 292 292 292 292 291 291 292 291 290 289 289 289 290 290 290 290 290 290 290 290 289 289 289 289 288 288 287 288 288 288 286 286 288 290 292 293 292 291 288 288 286 286 286 288 289 287 288 288 288 288 288 290 290 288 287 296 309 308 308 307 306 305 306 304 304 305 303 302 303 302 302 301 301 300 300 297 295 296 297 296 297 297 297 298 299
291 291 291 291 291 291 291 290 291 290 290 290 289 289 289 289 289 289 289 289 290 290 289 288 288 287 287 286 286 286 287 287 286 285 286 288 289 290 290 290 287 287 287 285 286 288 287 285 286 287 287 287 288 289 289 288 288 301 305 305 306 307 307 306 307 306 306 306 303 297 301 301 301 300 301 300 301 300 300 298 298 297 297 298 299 299 298
291 291 291 291 290 291 290 290 290 290 290 290 290 290 290 289 289 288 288 288 289 289 289 288 287 286 286 286 286 286 287 287 286 285 285 286 285 286 285 284 285 286 285 285 285 287 287 286 286 285 286 286 287 287 288 288 296 301 301 300 300 301 303 305 307 308 307 306 304 305 304 303 301 302 302 301 300 300 299 299 299 299 300 299 300 300 300
291 291 291 290 290 290 290 290 290 290 290 290 289 290 290 290 289 288 288 289 289 289 288 288 286 287 287 286 286 286 286 286 285 284 284 283 282 284 282 283 284 285 284 284 285 287 286 285 285 285 285 285 286 285 285 291 295 296 297 296 296 297 298 299 300 301 304 306 308 308 306 305 304 304 303 302 302 301 301 300 300 300 300 300 300 300 300
291 290 290 290 290 290 290 289 289 289 289 289 290 289 289 289 289 289 288 288 288 288 288 287 287 286 286 285 285 284 284 284 284 283 283 283 283 284 282 281 283 284 283 283 284 286 284 284 284 284 284 284 285 285 286 290 291 292 292 292 292 293 293 294 296 298 299 302 303 306 308 306 307 306 304 304 303 302 302 301 300 300 300 301 300 300 300
291 290 290 290 290 290 289 289 289 289 288 289 290 290 289 289 288 288 287 287 288 287 287 287 286 286 285 285 284 283 283 283 283 283 282 281 281 283 283 281 282 283 283 283 284 285 283 283 282 283 284 284 284 285 287 287 287 288 289 289 289 290 290 292 294 293 294 296 298 302 304 303 306 306 306 304 304 304 303 302 302 302 301 301 301 299 299
291 290 290 290 290 290 289 289 288 288 289 289 289 289 289 288 288 288 287 287 287 287 287 286 286 286 285 285 284 283 284 283 283 282 280 278 277 278 281 281 281 282 282 282 283 284 282 282 282 283 283 284 284 285 286 285 285 285 286 286 287 287 288 289 290 291 291 293 295 296 298 298 299 301 303 303 301 303 303 302 302 302 301 300 299 299 299
290 290 290 288 289 289 289 289 290 290 289 288 288 288 288 288 287 287 287 287 287 287 287 287 287 286 285 285 284 284 284 284 284 284 283 281 278 279 280 281 280 281 281 282 283 282 281 282 282 282 283 284 284 284 284 284 284 284 284 284 285 285 286 287 288 289 290 290 292 294 295 296 297 297 297 297 297 298 298 297 299 301 301 301 301 301 301
290 290 289 289 289 289 289 290 289 288 288 287 286 286 287 287 287 286 287 287 287 287 287 287 287 286 286 285 284 283 282 282 282 283 283 282 282 281 281 281 280 280 280 281 281 281 281 280 281 281 282 284 284 284 283 283 283 283 283 283 283 284 285 285 286 288 289 289 290 291 290 292 293 294 293 294 295 295 294 296 299 301 300 298 299 297 298
290 289 289 289 288 289 289 288 287 286 286 286 286 286 286 286 286 286 286 287 287 287 286 286 286 286 286 286 285 284 284 282 279 281 283 282 282 281 280 279 279 280 280 281 281 281 281 281 281 281 281 282 282 282 282 282 282 282 282 282 282 282 283 284 285 287 287 287 288 289 290 291 291 292 292 292 293 293 293 293 293 296 300 300 299 300 299
290 289 289 288 288 288 287 286 285 285 286 287 286 286 286 286 285 285 285 285 286 285 285 286 285 285 286 285 284 284 284 284 282 280 282 283 281 280 280 280 280 279 279 279 279 279 280 280 280 280 280 281 280 281 281 281 281 281 281 281 281 281 281 283 284 285 286 286 286 287 288 288 289 290 290 290 291 291 291 291 292 292 293 296 298 297 298
289 288 287 287 287 287 286 285 284 285 286 286 286 286 286 285 284 284 284 284 284 284 285 284 284 284 284 284 284 284 284 283 283 283 283 282 282 281 280 279 279 279 278 278 278 278 279 279 279 279 279 279 279 279 280 281 281 280 280 280 280 280 281 281 283 284 284 285 285 285 286 286 286 287 288 289 289 290 290 290 290 288 287 289 291 293 294
287 286 287 287 287 286 286 286 285 286 286 286 286 286 285 284 283 284 284 284 284 283 283 283 283 283 283 283 283 283 283 283 283 283 282 282 281 281 280 279 278 278 277 277 277 277 277 277 277 278 278 278 278 278 279 279 279 279 279 279 279 280 279 280 281 282 282 283 284 283 284 284 284 285 286 286 286 287 287 288 288 288 288 288 288 290 290
287 288 289 288 287 286 286 286 286 286 287 286 285 285 284 283 283 283 284 284 283 283 282 281 281 282 283 283 282 282 283 282 282 282 282 281 281 280 280 279 278 277 277 276 276 276 276 277 277 277 277 277 277 277 278 278 278 278 278 278 278 278 279 279 279 280 280 281 282 282 282 283 283 283 284 285 285 285 285 285 285 285 285 285 285 286 287
Wind_Speed
14 14 14 12 12 11 12 15 14 13 15 14 14 15 17 14 10 14 21 22 21 21 20 20 22 23 23 22 23 23 20 19 19 19 16 14 15 15 16 9 11 12 11 9 11 13 12 12 12 12 11 10 10 10 13 16 16 13 12 15 17 17 17 17 17 16 15 15 15 15 16 17 16 16 16 16 15 14 14 14 14 16 14 14 13 14 14
15 15 12 11 10 9 8 12 11 12 12 13 14 16 18 16 16 18 19 23 26 22 19 20 18 17 20 21 21 20 22 19 18 18 18 18 13 12 16 17 13 9 10 11 14 13 13 14 12 12 12 13 14 13 11 13 15 15 12 15 16 17 17 17 16 16 15 14 15 15 15 16 16 16 16 16 15 15 16 16 15 15 14 14 14 14 15
14 14 13 11 9 5 7 8 10 10 10 12 14 15 17 17 17 19 18 18 22 16 12 16 20 19 19 20 19 20 23 21 19 18 18 16 15 15 18 19 16 9 13 13 12 13 13 11 11 12 12 12 12 13 14 12 13 14 14 15 17 17 18 17 16 16 15 14 15 16 15 15 15 16 17 15 15 16 15 15 16 15 15 15 15 14 15
11 10 9 10 1 4 5 6 11 11 10 10 8 9 10 6 9 12 12 13 11 15 17 18 19 21 21 20 22 20 16 19 19 18 18 17 17 17 18 17 17 13 15 15 14 14 13 12 12 12 12 10 11 13 14 15 13 13 15 14 17 17 18 16 16 14 12 12 14 16 16 16 16 17 16 16 16 17 16 15 14 14 15 16 16 14 13
11 12 11 11 2 4 3 3 4 7 8 11 13 14 12 12 10 10 7 11 12 16 16 20 21 20 22 22 19 18 21 21 21 19 18 19 19 18 17 17 17 17 17 16 15 10 6 8 10 11 11 9 9 10 10 12 14 13 12 12 15 17 16 17 15 13 13 13 13 14 16 17 16 16 17 17 17 16 17 16 14 15 17 16 15 15 14
11 14 14 7 5 7 2 4 7 7 10 12 12 12 14 7 4 5 7 13 15 18 16 17 19 20 20 20 21 21 19 18 19 23 21 19 19 16 17 19 20 20 17 10 5 3 3 7 10 9 10 9 10 10 9 9 11 13 12 14 12 14 16 17 16 15 15 15 14 14 15 17 17 17 18 18 17 16 15 14 15 15 16 17 15 16 15
10 11 12 9 5 1 4 5 6 8 9 11 13 16 13 6 3 8 12 14 16 18 15 15 18 21 23 22 23 24 24 21 19 20 20 21 20 19 17 18 17 10 3 6 7 7 7 6 6 6 10 9 11 14 11 9 9 12 14 13 12 12 16 16 16 16 17 17 16 13 13 16 17 17 18 17 17 16 14 16 17 17 17 18 17 16 14
7 8 6 7 1 4 4 3 3 5 9 7 10 9 4 3 2 7 11 14 15 16 18 16 14 16 22 22 21 22 22 22 20 20 19 20 20 19 16 16 14 8 6 5 6 8 8 9 8 8 9 9 11 14 16 11 9 11 14 15 16 12 14 16 17 18 19 18 16 16 18 19 18 18 18 18 18 15 14 14 14 14 13 14 15 14 15
7 6 7 9 5 1 6 11 11 13 13 15 11 8 3 6 2 12 14 17 14 12 12 11 12 15 16 17 15 14 16 18 19 20 20 20 20 19 19 16 14 15 11 10 11 12 8 6 8 7 7 8 10 13 16 13 10 12 12 13 15 15 12 17 17 17 16 15 16 16 13 15 18 19 18 18 17 14 15 15 15 16 16 16 16 16 15
2 9 8 7 2 3 8 13 14 13 14 15 13 2 2 5 7 13 17 19 19 20 17 15 10 13 12 13 14 16 21 21 21 19 18 18 18 20 22 19 17 16 16 14 14 8 10 9 8 8 7 7 8 11 14 14 14 12 13 14 14 15 12 12 15 16 15 14 13 14 14 16 20 18 17 16 17 16 17 16 16 17 16 15 15 15 16
6 6 8 6 5 3 9 15 16 16 15 17 13 4 2 2 13 15 16 18 18 19 19 20 10 10 11 15 16 20 23 25 25 22 21 20 19 19 19 12 9 11 12 16 17 13 8 9 9 8 8 8 8 10 13 16 17 16 12 13 14 15 14 11 14 16 14 12 13 12 12 16 19 18 18 17 16 15 15 15 16 16 15 14 15 14 14
4 6 7 6 2 2 14 17 17 16 19 16 8 8 9 13 17 16 15 18 20 19 19 18 12 4 12 16 22 26 27 26 25 22 21 20 19 19 20 18 15 12 8 11 8 8 10 10 9 10 10 9 10 12 15 15 17 15 13 14 14 14 14 5 4 7 7 12 16 16 18 19 21 20 17 16 16 16 15 14 13 14 14 14 16 15 14
8 8 6 5 1 2 13 15 18 17 18 8 9 11 11 15 13 13 14 14 18 18 19 16 16 5 8 18 23 24 22 21 20 19 18 18 17 18 20 18 13 12 12 12 12 13 12 11 9 8 9 10 10 11 12 14 14 12 12 12 12 12 5 6 8 10 11 11 8 15 20 23 20 17 15 16 17 16 16 14 13 13 15 14 15 14 13
8 7 8 7 3 4 14 15 14 15 11 9 15 10 12 15 15 15 13 15 18 19 17 16 15 12 15 21 23 25 26 22 15 13 14 14 14 16 17 15 12 10 12 12 13 14 14 13 12 12 12 12 12 12 13 16 14 10 11 9 7 8 9 10 13 12 14 17 11 6 5 8 9 12 13 14 15 16 15 15 16 15 15 14 14 14 12
5 4 7 7 5 5 15 18 8 12 8 8 6 12 15 16 16 14 12 13 16 16 18 19 19 17 19 24 26 26 24 25 17 10 9 9 11 12 13 14 16 14 12 13 15 14 11 11 12 12 12 12 12 12 13 15 11 8 8 4 7 5 2 1 9 12 13 10 8 8 13 13 13 14 14 13 13 14 15 15 15 16 16 14 14 13 12
5 6 7 4 2 10 12 14 8 12 9 11 13 14 15 15 14 12 11 14 15 14 17 19 19 18 18 23 25 26 25 22 19 14 9 8 8 9 11 14 15 12 14 15 13 12 11 10 11 11 10 12 12 11 14 12 6 5 5 5 6 7 9 7 10 7 10 14 13 12 15 16 16 16 16 14 14 14 15 15 14 15 14 13 13 13 14
3 5 3 2 4 10 12 10 11 12 14 14 16 15 14 15 15 14 11 15 16 16 19 19 19 18 17 19 20 21 23 25 21 15 16 10 8 7 8 11 11 11 13 15 15 15 13 11 11 12 12 12 12 13 13 11 8 7 6 5 5 8 9 9 7 7 9 9 13 17 18 17 16 15 15 14 14 14 15 13 14 14 14 14 15 14 13
9 2 3 8 11 13 14 9 11 13 16 15 15 16 16 18 17 15 14 15 16 19 19 17 18 18 16 17 17 19 19 19 20 16 12 15 14 12 13 13 12 12 11 11 11 13 15 15 13 11 10 10 11 10 11 13 9 4 3 4 4 6 8 8 8 9 8 6 6 7 14 10 15 16 17 16 14 14 14 14 14 15 14 14 13 13 12
8 4 10 14 15 14 11 13 13 12 13 16 17 16 16 17 18 20 18 17 16 19 20 17 18 20 21 20 19 19 19 22 21 21 18 13 12 12 13 15 15 13 12 12 12 13 15 14 12 12 12 9 7 4 6 8 7 11 8 6 6 5 5 5 5 6 7 5 6 6 10 7 10 13 14 14 14 14 14 14 14 14 14 13 13 13 12
7 8 11 15 16 12 7 11 13 17 19 18 17 16 17 18 19 18 18 20 20 18 20 22 19 18 19 21 19 19 17 18 20 19 19 19 16 14 12 10 13 13 12 12 13 15 14 8 8 11 10 11 8 5 3 5 5 8 8 8 7 7 6 3 3 2 2 4 4 4 8 10 12 12 14 14 14 15 15 15 16 15 14 14 15 15 13
9 9 12 16 16 5 10 15 15 15 16 17 19 19 20 20 21 21 20 18 19 17 19 21 19 18 18 19 21 20 19 19 21 20 19 18 17 15 15 11 9 10 8 9 13 13 9 4 9 7 6 6 7 5 5 6 6 9 11 9 8 7 5 4 3 3 5 5 4 3 6 8 9 9 12 14 15 14 14 13 14 14 15 14 14 14 13
7 9 13 15 13 12 14 14 17 17 17 17 19 19 19 20 21 21 22 22 20 19 16 18 20 19 17 19 18 19 17 18 20 21 19 18 17 17 15 13 14 14 8 5 10 12 8 6 5 5 4 3 6 5 3 3 5 8 10 10 10 9 6 5 4 3 3 6 6 4 5 6 8 9 12 15 10 12 11 12 15 15 12 11 12 11 12
8 11 12 11 11 11 12 16 17 17 16 16 18 19 19 19 20 20 21 22 21 19 20 17 19 20 19 20 17 18 18 18 18 19 20 21 19 18 17 18 19 19 13 7 7 10 10 7 7 7 8 7 8 6 3 3 5 8 10 8 7 7 6 6 5 4 2 2 5 6 5 3 2 6 5 6 14 7 12 14 15 15 14 16 16 13 11
9 10 11 11 10 11 14 15 16 15 14 16 17 18 18 19 20 20 21 19 20 19 19 20 18 20 20 19 18 18 19 19 19 20 18 18 18 17 17 16 17 17 17 8 6 6 8 6 9 10 9 6 7 9 7 3 5 6 8 7 7 7 6 3 0 3 3 3 2 5 5 6 7 9 9 7 2 10 9 12 17 18 19 18 17 16 17
9 10 9 10 9 12 12 12 12 13 15 15 15 16 18 19 19 19 19 19 18 19 19 18 19 19 20 20 18 18 19 19 18 17 17 15 16 17 17 20 22 21 19 14 9 7 6 6 3 0 1 4 4 7 8 8 8 8 7 8 8 7 5 3 2 5 5 3 2 3 4 6 9 10 9 8 6 3 7 11 4 18 21 18 17 19 19
9 8 9 10 11 10 11 12 13 15 16 16 15 15 17 17 18 19 18 18 17 18 18 18 19 20 19 19 18 18 19 21 20 15 15 17 17 17 17 17 15 16 15 12 13 15 14 14 11 9 8 8 7 8 8 7 6 6 7 8 8 6 6 5 5 5 4 1 2 2 2 2 2 7 10 8 8 6 7 7 5 9 7 9 19 19 15
8 9 10 11 11 11 11 12 13 16 16 17 16 17 18 17 17 16 16 16 18 18 17 18 19 18 18 18 19 19 18 19 19 12 12 15 17 15 14 14 13 16 18 15 14 14 14 13 12 12 13 13 12 9 9 9 6 6 7 7 6 3 8 8 6 4 3 2 1 3 5 5 3 2 4 5 4 6 10 13 10 10 10 2 1 8 10
8 8 9 11 12 13 15 15 13 13 15 15 17 18 18 17 17 18 19 20 21 21 19 19 20 20 19 19 19 20 20 19 19 15 13 13 13 14 14 15 12 12 13 13 15 16 16 17 16 15 14 14 13 12 9 11 8 6 6 6 7 7 7 8 8 5 3 2 1 2 2 2 3 3 4 4 5 5 1 1 7 13 9 7 6 4 9
8 10 10 11 12 12 13 14 14 15 15 16 17 16 17 19 19 17 18 19 19 19 19 22 21 19 18 19 18 20 20 19 17 15 13 11 11 12 14 14 12 12 13 14 14 14 14 15 14 13 14 14 12 13 13 10 11 10 8 8 9 8 8 7 8 7 5 4 5 4 3 2 1 5 5 4 5 5 6 6 4 2 3 6 6 6 6
9 10 11 11 11 13 13 14 14 14 14 15 17 17 17 18 18 17 18 19 19 19 20 21 20 20 20 19 19 20 20 21 18 14 14 11 10 12 13 15 14 14 15 17 16 15 16 16 14 16 14 14 13 14 14 13 9 11 11 8 6 8 7 7 6 7 6 6 5 4 3 1 1 3 2 1 1 1 5 7 9 10 9 6 6 10 10
12 13 13 12 13 14 14 14 13 14 15 15 16 17 18 17 17 17 18 18 17 18 20 20 20 21 21 20 19 19 19 20 18 17 17 14 11 11 12 14 15 14 13 14 16 14 15 16 15 13 14 14 13 15 13 13 10 9 8 9 7 8 12 15 8 7 6 6 5 4 3 3 2 2 3 6 6 5 3 1 6 9 8 9 8 7 8
12 13 13 11 12 14 15 13 15 15 15 16 16 17 17 18 19 20 19 18 18 19 20 21 21 21 20 19 19 19 19 19 18 16 17 17 14 11 9 11 12 13 13 14 15 15 14 15 15 16 17 15 11 14 14 12 10 9 8 7 7 7 7 10 8 6 6 7 6 6 6 5 4 3 4 5 6 7 6 4 1 1 3 7 7 6 8
10 11 11 13 13 13 14 15 15 17 16 16 15 14 14 15 15 16 16 17 17 18 18 18 18 19 19 18 19 18 19 18 17 17 17 18 17 15 9 9 9 11 12 12 13 12 13 13 14 17 17 16 14 12 13 14 10 8 8 7 7 5 6 5 7 7 6 6 6 7 6 7 6 5 5 6 4 3 5 5 5 6 6 5 6 7 10
13 13 14 13 12 12 14 15 15 15 14 14 14 14 15 15 15 15 16 17 17 17 17 18 18 19 18 18 17 17 18 17 16 18 19 19 17 16 12 11 11 12 11 12 15 14 13 13 14 15 17 15 17 14 13 13 12 9 8 7 6 6 7 7 8 8 7 7 6 7 7 5 7 6 4 4 3 3 3 4 4 5 5 4 4 6 11
11 13 13 13 13 12 12 13 14 13 14 14 14 13 14 14 15 15 15 16 17 16 16 17 17 17 18 17 17 18 18 17 17 18 18 18 17 17 12 14 14 14 14 14 16 16 15 14 16 16 15 17 15 15 14 15 12 9 10 9 6 5 6 7 7 7 7 6 6 7 6 6 5 5 6 5 4 4 3 2 3 3 3 3 4 5 8
12 12 12 13 12 13 14 13 11 13 13 13 13 13 13 14 16 16 17 17 15 16 16 17 17 17 16 17 16 17 16 17 19 19 18 18 17 15 13 14 15 16 16 15 15 17 16 16 24 28 16 13 14 14 14 13 12 11 9 9 7 7 6 6 6 5 5 6 6 5 5 5 6 6 5 5 5 4 4 4 3 3 4 4 4 5 6
11 13 12 10 10 13 13 11 11 12 12 12 12 13 13 14 15 15 15 14 15 15 16 16 16 17 16 16 15 14 13 12 14 16 17 17 15 16 13 13 15 15 16 16 18 18 16 17 25 25 15 13 14 15 17 21 13 11 9 8 8 7 7 6 6 6 6 6 6 5 6 5 6 6 6 5 5 4 4 5 5 4 5 4 5 5 6
11 10 10 10 12 11 11 11 11 11 11 12 12 11 12 12 13 15 14 14 15 15 15 15 16 16 15 15 15 15 16 16 16 17 18 18 17 15 14 13 14 14 14 15 17 16 14 19 23 16 14 13 13 13 17 24 22 12 7 6 6 6 7 6 6 7 7 6 6 5 6 6 5 6 5 5 6 5 5 5 5 5 5 5 5 5 4
10 9 10 11 10 10 11 11 11 10 11 12 12 11 11 13 14 15 14 15 15 16 15 15 15 15 16 17 16 16 16 16 16 16 17 18 16 14 12 11 13 13 11 14 16 13 14 17 16 14 13 14 16 14 17 21 23 12 8 6 6 5 6 5 6 5 5 6 7 7 7 6 6 6 6 6 6 6 6 6 5 5 5 5 5 5 4
9 9 10 10 10 11 11 11 11 11 11 10 11 12 12 12 13 13 13 14 14 14 14 15 15 14 15 16 16 15 15 16 16 15 16 16 15 14 11 10 14 14 15 18 15 12 14 20 16 13 13 15 14 13 14 20 17 10 10 11 9 7 5 5 6 6 5 5 6 7 6 6 7 6 6 6 5 5 4 5 5 5 5 5 4 4 4
8 9 9 9 10 10 10 10 11 12 11 11 11 11 11 12 12 13 13 14 14 15 15 14 14 14 15 15 15 15 14 14 15 15 15 14 14 13 12 12 15 15 16 17 15 12 14 15 15 15 14 15 13 16 14 17 11 9 10 10 10 10 10 10 8 7 4 4 4 4 5 4 5 6 6 5 5 5 5 5 5 5 4 5 4 5 5
8 10 10 10 10 10 10 11 11 11 11 11 11 11 11 12 12 12 13 13 14 14 15 14 13 13 14 14 13 13 13 14 14 13 13 13 14 12 12 11 15 13 20 20 17 13 12 14 14 14 16 16 14 21 22 12 11 10 10 10 11 11 10 10 10 10 9 8 4 4 5 4 5 5 5 5 5 5 4 5 5 5 5 5 5 6 6
9 10 10 9 9 10 11 11 10 11 12 11 11 11 11 11 11 12 13 13 13 14 15 14 14 14 14 14 14 14 12 13 14 14 12 9 10 10 11 12 14 13 21 16 15 10 12 12 14 13 20 18 15 22 17 11 11 11 10 11 11 11 10 10 9 9 9 9 9 7 5 6 6 5 4 5 5 5 5 5 5 5 4 5 5 6 6
9 9 9 9 9 10 10 10 11 11 12 12 12 11 11 10 10 11 12 13 13 13 14 14 15 14 14 15 14 12 12 13 13 13 12 11 9 7 10 12 12 14 20 15 12 10 11 13 12 20 24 22 22 19 12 11 11 11 11 10 10 10 10 11 10 10 9 9 9 9 9 8 7 6 6 6 5 6 5 5 5 5 5 5 5 5 6
8 8 9 9 11 10 9 10 11 12 11 11 11 11 10 10 11 11 12 12 12 12 13 13 14 14 13 13 12 12 11 11 10 12 13 13 13 12 14 13 13 13 16 21 12 11 11 13 19 26 22 21 18 16 11 11 11 11 11 10 10 10 10 10 10 10 9 9 9 9 9 9 10 10 9 8 7 6 7 6 7 6 6 6 5 5 5
8 8 8 9 9 9 9 11 10 10 11 11 11 10 10 10 10 11 11 12 12 11 12 13 13 13 12 13 13 12 11 10 10 10 9 10 10 12 13 15 13 13 21 20 11 11 11 20 24 25 24 19 17 12 11 11 11 10 11 10 10 10 9 9 10 9 10 9 8 8 8 8 9 9 9 9 9 8 7 6 7 7 6 6 6 6 5
7 7 8 8 9 9 10 10 10 10 10 10 9 9 10 10 10 10 11 11 11 11 11 12 12 12 12 12 12 11 11 11 9 8 10 10 11 12 13 16 16 19 17 12 11 11 13 15 19 25 24 19 15 11 11 10 10 10 10 9 10 9 8 9 10 9 10 10 10 9 9 10 9 9 9 10 11 10 9 9 7 6 7 7 8 7 7
7 7 7 7 8 9 9 8 9 8 8 8 9 9 8 9 10 10 10 10 10 10 11 10 10 11 12 11 11 10 10 11 12 10 10 11 11 11 11 12 14 20 19 12 14 13 20 22 23 24 23 18 12 11 11 11 11 11 9 9 10 10 10 9 10 9 10 10 11 9 9 9 9 9 9 9 9 10 10 11 10 8 8 8 8 8 9
6 7 7 7 7 8 8 6 8 8 7 8 8 8 9 9 10 9 9 10 10 10 10 10 11 11 10 9 10 9 9 9 9 11 11 10 10 10 11 13 16 17 14 11 12 10 16 22 22 23 22 16 11 11 10 10 11 10 9 10 10 10 10 9 9 10 9 10 10 10 10 10 9 9 9 9 9 9 10 11 11 11 9 8 8 8 8
5 6 6 6 6 6 7 7 7 7 7 7 7 6 7 8 8 8 8 8 9 9 9 9 9 9 8 8 8 8 8 10 10 10 10 10 11 11 11 12 12 15 16 12 12 11 13 19 18 19 15 11 11 11 11 11 10 11 10 11 11 10 11 12 10 12 12 10 10 11 11 10 10 11 10 10 10 10 11 10 10 13 17 13 11 11 10
4 3 6 5 5 6 6 7 6 6 7 7 7 7 7 7 7 8 8 7 8 9 8 8 8 8 8 8 8 8 8 8 10 10 9 9 10 11 12 11 12 11 12 11 11 11 11 11 11 13 13 11 10 11 10 12 10 10 11 10 11 11 11 12 10 10 11 11 9 10 10 10 11 11 11 10 11 11 11 11 11 11 11 11 11 11 11
4 5 5 5 5 5 6 6 6 6 6 6 6 5 5 6 7 7 7 7 8 8 8 9 9 8 8 8 9 8 8 9 9 8 9 9 9 9 10 12 10 11 11 10 10 11 10 11 11 13 14 11 11 11 11 14 11 9 10 11 10 11 11 11 11 10 11 12 11 10 11 11 11 11 10 10 10 11 11 11 11 11 11 11 11 11 11
Wind_Direction
287 295 295 294 290 286 288 291 295 301 304 298 287 278 275 278 270 272 294 303 295 291 293 297 298 302 297 291 293 295 289 290 297 297 279 264 274 286 299 267 242 248 243 239 240 244 247 244 249 262 268 263 256 245 222 221 229 233 199 194 194 196 199 203 203 204 199 197 200 203 201 198 196 194 195 195 194 189 185 187 189 193 193 193 191 195 201
297 292 295 293 280 278 288 289 308 311 307 298 290 282 280 268 260 270 281 291 290 288 295 300 308 317 309 301 290 275 276 274 271 279 290 277 236 252 264 271 268 247 237 235 238 243 242 242 243 239 243 253 257 256 246 222 217 225 208 195 196 198 200 203 204 204 201 197 199 202 203 200 196 193 194 193 193 193 189 189 189 190 192 191 194 199 202
294 293 292 285 255 247 272 287 298 300 299 298 284 278 275 274 267 266 270 279 285 290 311 324 320 311 304 299 302 302 285 264 261 264 266 274 279 263 255 258 242 244 264 259 251 246 245 238 239 248 251 247 241 247 254 247 228 218 216 197 198 197 203 203 201 201 201 199 200 203 202 201 197 195 193 191 190 194 192 187 187 189 189 191 196 200 201
290 293 312 321 31 253 257 290 283 291 300 300 294 290 288 271 272 284 289 287 287 305 316 312 311 310 307 305 305 303 309 309 298 268 254 261 259 255 260 268 280 270 255 250 250 244 242 235 235 236 237 242 247 239 239 250 247 227 222 213 202 199 199 197 198 193 195 203 204 202 202 201 199 196 193 192 191 192 192 188 186 184 188 192 196 199 199
280 294 309 316 229 239 230 235 281 300 275 253 273 286 280 271 292 297 302 297 294 296 304 305 306 310 308 307 301 303 308 303 298 300 291 264 248 254 256 257 258 260 258 256 252 239 251 253 245 250 258 257 257 258 249 245 244 242 234 229 209 201 193 194 193 190 193 206 217 211 201 201 198 195 194 193 192 191 190 189 185 185 191 191 193 199 200
289 303 309 312 290 296 34 269 273 274 281 293 299 300 309 336 46 292 276 281 290 295 297 299 304 307 308 306 302 300 292 290 295 295 290 292 298 293 270 247 242 241 248 257 271 278 344 310 297 300 300 303 301 287 262 244 251 259 248 242 228 205 196 194 189 193 197 202 210 220 212 200 198 195 194 193 191 191 190 186 185 187 190 192 193 197 199
287 300 300 292 288 131 253 269 262 257 269 279 288 284 299 350 358 294 288 287 291 296 287 290 296 301 301 302 301 298 293 288 282 276 280 285 279 272 280 273 243 252 294 306 303 303 290 294 309 302 295 297 301 297 273 248 243 259 260 258 261 225 202 195 191 194 198 200 201 208 227 214 198 197 194 192 190 189 188 185 187 188 189 192 195 196 197
281 285 308 313 308 143 257 289 348 269 251 257 288 281 83 90 243 311 304 298 293 297 293 287 288 298 299 298 289 282 280 279 270 265 266 268 270 276 284 294 295 278 255 248 262 268 266 269 271 275 282 293 294 296 292 261 242 244 253 256 251 251 220 200 194 196 201 200 195 201 211 214 204 198 194 192 190 186 186 188 190 189 190 193 192 195 198
295 310 302 303 72 123 23 359 356 1 350 341 341 321 233 207 264 344 325 323 318 304 291 293 301 302 299 293 287 289 286 275 261 259 265 270 273 276 275 276 292 297 283 266 251 246 249 252 259 264 274 286 291 290 292 280 245 245 248 250 256 250 231 212 201 196 198 189 189 201 207 226 215 200 193 190 190 185 186 187 186 188 189 189 192 193 194
304 304 313 308 303 321 11 358 346 353 343 332 335 339 297 199 319 341 339 335 331 323 317 316 314 317 307 311 311 316 317 316 316 315 309 305 300 284 265 261 264 264 267 264 259 218 212 231 239 247 252 257 268 285 291 291 280 255 240 243 249 252 244 227 213 208 199 194 191 192 204 221 223 206 195 189 189 182 185 185 188 190 188 188 191 192 191
298 307 304 317 319 68 1 358 346 348 339 326 322 288 321 70 342 341 341 330 326 324 321 322 335 338 324 313 312 310 307 304 299 293 291 290 285 288 292 286 302 318 311 269 243 242 227 240 243 245 251 254 263 275 277 275 273 269 252 246 243 249 250 239 222 209 201 189 189 188 203 225 231 211 195 191 187 182 187 189 189 190 189 189 190 190 191
255 275 301 319 25 42 9 357 350 349 333 323 315 352 340 343 337 334 334 327 325 324 320 319 318 340 318 316 311 303 298 289 285 279 277 277 279 284 284 271 252 259 284 305 294 284 276 265 257 258 260 259 251 247 254 258 259 258 253 247 248 247 247 225 23 321 277 209 195 197 204 210 223 215 195 190 186 183 185 186 185 186 188 190 189 191 189
328 325 314 317 133 151 5 356 349 352 328 310 3 1 322 318 317 323 329 319 325 325 322 325 318 300 307 302 297 298 295 294 279 265 260 263 268 270 271 271 271 259 262 263 261 265 271 275 279 277 271 265 259 258 259 256 246 252 266 262 250 252 234 228 216 226 248 272 250 220 207 208 212 216 195 190 183 182 181 184 182 184 187 190 190 190 187
339 332 331 320 22 66 344 354 355 1 337 22 344 313 310 319 327 322 331 330 325 326 319 317 313 311 319 318 323 328 334 333 309 279 261 255 256 259 265 271 270 261 265 273 275 273 273 279 282 272 259 255 251 253 258 262 261 255 264 269 272 267 249 219 219 217 231 233 200 204 272 315 299 247 213 190 184 179 179 181 181 183 185 186 188 188 187
312 332 341 346 340 357 348 342 1 18 23 2 317 319 325 330 329 330 335 333 320 324 316 313 313 322 332 338 334 335 333 340 324 304 295 282 267 261 260 261 253 248 253 262 263 260 262 272 273 270 270 262 260 262 261 265 264 259 266 256 254 249 143 338 286 255 233 238 220 215 210 197 212 239 233 200 184 180 179 181 180 180 182 183 185 188 187
328 343 349 350 287 283 329 355 359 358 4 346 345 337 327 333 333 338 331 330 320 316 317 320 322 328 334 340 343 339 340 340 337 332 328 329 312 292 274 265 267 279 276 270 270 278 280 268 272 274 268 271 271 270 269 271 262 256 238 230 249 266 264 197 195 217 246 244 229 232 225 203 195 209 223 200 181 181 179 178 180 180 181 181 183 186 188
106 328 342 249 325 344 349 357 4 350 354 350 341 335 332 332 332 329 326 323 322 320 325 323 324 328 334 340 343 342 337 344 340 340 336 331 312 300 294 296 290 287 284 281 276 275 273 279 280 278 277 276 278 281 286 286 270 253 236 238 238 263 264 255 234 192 213 227 221 217 215 201 193 195 212 198 181 182 179 177 179 178 181 182 184 187 187
313 252 178 13 3 353 342 1 1 353 343 347 340 340 332 338 338 335 328 325 335 330 327 324 330 328 331 336 343 342 340 340 341 345 345 337 334 328 322 308 294 289 284 286 293 290 285 282 281 284 286 285 277 277 294 288 282 296 273 263 252 241 257 273 277 262 241 260 267 259 258 209 194 195 196 192 181 178 181 181 182 181 182 182 184 184 185
330 338 354 14 359 345 338 358 348 352 346 341 345 343 337 328 331 337 336 335 332 329 330 335 330 328 335 340 344 349 346 341 347 355 351 357 350 335 320 316 311 304 299 293 288 285 286 286 296 293 279 275 273 323 4 15 346 286 287 275 258 241 236 259 278 299 311 323 303 277 258 259 234 201 197 187 177 179 184 182 184 187 184 180 181 182 184
328 332 355 360 350 336 356 355 346 344 341 344 347 337 332 332 336 339 333 333 331 342 339 337 332 330 335 339 342 341 343 345 349 350 352 350 349 351 338 314 308 298 296 304 306 300 290 299 296 300 311 330 347 357 357 9 332 306 292 281 272 265 266 250 211 211 267 261 266 278 261 222 227 222 202 185 181 185 187 185 186 189 185 182 184 183 181
327 332 352 346 336 335 343 340 350 340 338 341 339 337 331 338 339 336 336 339 329 342 341 334 331 330 336 337 340 341 343 349 347 345 346 346 346 345 345 336 312 290 294 323 322 310 309 308 288 291 310 333 318 350 24 347 326 301 288 282 276 273 277 263 230 164 177 168 166 207 275 270 263 249 221 198 188 190 190 191 189 188 188 185 184 180 180
342 343 343 346 341 332 334 343 336 334 340 338 334 333 338 341 339 336 339 335 333 337 342 342 336 337 335 333 338 340 340 342 344 343 342 344 342 344 344 342 348 338 319 357 341 330 309 294 306 300 312 341 322 337 21 337 306 285 272 268 271 267 247 235 229 184 166 165 170 175 222 253 279 290 315 296 237 188 186 189 175 177 173 184 181 175 175
320 330 335 336 326 314 328 329 328 333 339 339 335 337 338 338 337 339 337 331 334 340 341 346 342 339 335 330 334 340 341 337 341 344 347 350 346 346 342 349 352 355 339 357 359 337 338 346 334 345 0 2 339 342 340 277 285 276 275 278 275 270 263 263 253 221 185 158 135 163 196 268 282 249 257 316 343 293 182 151 154 154 158 156 160 168 164
310 330 331 335 337 326 322 324 325 330 341 337 336 337 338 339 338 340 336 336 338 339 342 339 342 339 336 332 335 338 339 336 337 342 347 356 351 345 351 355 354 355 346 357 8 337 326 12 10 355 347 346 325 324 315 16 5 303 284 284 277 270 271 267 216 255 253 220 162 126 138 172 215 226 221 224 205 14 9 160 149 151 154 159 164 159 163
321 324 335 342 326 311 319 324 327 337 338 337 337 336 340 338 338 338 336 339 340 342 343 338 339 341 341 337 338 339 337 333 331 336 341 351 358 355 352 357 5 1 346 337 7 13 357 25 45 254 300 306 304 322 342 2 2 353 320 282 261 271 288 304 248 232 229 223 162 143 175 207 224 220 216 209 175 166 25 26 136 162 161 165 171 170 171
349 355 343 326 310 322 327 334 336 338 338 341 339 339 337 337 338 340 340 339 339 343 342 339 342 340 343 340 338 337 339 335 327 329 348 355 359 358 358 359 1 0 337 343 15 20 9 8 12 14 16 10 360 344 341 351 359 351 335 351 354 355 333 316 284 271 264 225 150 165 176 175 245 234 203 195 208 161 135 127 57 11 11 176 177 171 161
7 350 329 320 326 327 334 346 336 332 338 339 340 338 337 337 341 340 338 340 341 344 341 342 342 343 342 341 338 334 334 331 328 336 350 356 360 360 355 352 357 3 347 352 9 17 15 15 10 11 10 3 355 353 344 341 350 353 357 352 346 11 12 340 301 308 328 318 178 187 206 217 188 200 191 189 154 161 169 158 161 172 175 168 321 164 137
347 337 326 330 326 327 333 334 333 336 340 338 342 344 340 340 341 342 344 345 345 345 341 343 345 346 345 342 339 334 333 333 334 335 352 358 1 360 356 354 6 14 348 350 5 8 12 12 8 4 2 353 353 346 350 345 344 7 8 353 357 5 16 354 328 335 338 339 13 67 116 165 183 204 190 166 160 158 79 356 176 165 158 170 159 186 147
340 329 328 323 321 327 333 330 338 341 341 343 343 342 340 343 343 345 345 346 344 342 340 340 341 345 346 340 340 336 334 330 331 332 350 354 4 5 359 355 357 8 5 5 6 6 8 10 2 359 358 345 348 354 347 355 350 351 22 34 13 5 10 360 335 325 336 5 30 14 21 9 185 179 188 186 180 176 153 134 103 55 92 121 100 75 65
332 321 321 327 327 335 331 334 337 338 341 342 343 341 343 343 343 345 344 344 344 343 338 337 339 341 344 343 341 336 333 330 324 340 351 355 0 8 8 0 358 4 7 4 3 4 7 3 356 356 350 339 351 5 357 350 356 354 356 16 64 21 356 343 331 339 359 15 16 28 38 354 26 77 76 100 92 139 156 154 149 149 153 172 164 156 149
330 328 328 335 342 337 335 334 336 338 340 341 343 341 342 343 343 343 344 342 343 339 339 339 339 339 340 342 341 336 331 330 330 354 344 352 0 10 14 13 8 358 2 2 357 1 6 4 356 353 343 336 354 6 357 356 350 3 1 354 4 39 12 342 347 358 348 351 360 28 60 70 60 67 110 112 98 59 32 94 159 159 163 165 162 146 134
339 339 338 345 339 334 334 339 336 338 338 341 342 344 344 343 343 344 340 343 342 338 338 339 340 340 337 337 340 338 336 332 334 348 345 346 356 4 23 20 13 2 1 6 2 354 358 6 359 348 342 338 347 12 2 353 347 360 359 354 357 359 357 350 346 359 356 351 355 9 26 42 55 75 85 96 106 121 126 122 97 234 184 159 147 133 130
321 321 320 325 332 338 336 335 338 336 339 344 343 342 339 340 339 339 339 342 337 338 339 338 338 335 334 337 340 339 337 332 334 344 349 345 350 352 16 22 18 7 1 6 2 353 354 9 353 342 343 340 347 3 9 0 346 354 357 1 352 357 348 354 354 354 9 3 18 13 16 21 27 40 51 53 77 97 124 140 158 167 181 181 163 148 156
324 333 334 343 346 335 331 333 335 335 338 340 339 340 339 340 339 337 340 339 337 339 339 338 337 334 333 337 341 342 339 341 345 342 345 341 345 346 5 16 14 7 3 2 6 2 353 7 358 343 336 344 351 349 360 358 345 345 1 358 3 360 7 5 5 13 10 15 7 14 21 30 29 30 40 50 72 92 128 161 171 172 173 170 150 131 153
319 320 321 324 325 327 336 336 331 335 339 337 339 340 337 337 337 337 337 337 340 341 338 337 336 335 335 338 343 342 342 341 338 336 337 339 343 343 3 9 5 0 3 9 7 357 342 357 357 343 334 345 347 350 353 354 342 335 350 356 351 5 13 16 16 16 6 13 18 19 24 28 39 31 31 41 66 77 95 117 155 158 138 118 89 105 150
327 326 331 334 336 342 341 335 337 340 338 335 336 337 336 335 336 336 337 337 341 340 340 339 336 337 340 344 342 343 345 341 337 334 334 338 343 343 4 16 6 1 356 353 3 350 340 356 350 342 337 344 343 343 347 352 337 335 332 355 355 5 15 21 16 28 26 28 28 27 26 29 33 28 38 48 48 63 69 85 81 69 66 94 94 107 114
327 333 333 333 339 336 330 334 342 339 337 338 336 337 335 336 335 335 332 335 339 342 343 338 338 341 345 345 340 339 342 346 337 332 332 337 345 348 4 22 11 8 2 355 347 338 342 353 343 335 339 344 340 339 338 345 347 320 324 2 5 5 1 11 12 24 30 34 33 32 23 23 34 35 27 33 51 53 66 79 73 71 79 93 97 112 129
330 327 329 333 334 330 332 337 338 337 337 334 335 336 336 334 332 332 334 334 338 344 342 338 340 340 343 342 341 343 343 347 346 339 335 340 345 351 358 25 14 8 7 353 333 332 345 346 339 339 347 341 336 329 336 336 339 335 321 357 4 0 356 360 2 10 17 32 33 40 38 34 40 45 42 37 43 49 56 59 57 85 93 93 97 105 120
327 328 334 333 328 334 338 334 336 336 340 336 334 335 338 336 330 332 331 335 337 340 341 341 341 343 346 345 344 343 345 347 348 343 338 341 345 352 354 20 27 4 8 342 334 333 348 347 341 343 346 339 333 329 334 334 337 329 343 5 353 13 360 3 3 12 20 25 28 35 40 38 41 41 50 49 51 57 52 58 73 83 93 107 112 125 127
324 330 333 333 331 336 335 337 336 336 335 338 337 337 339 335 333 332 332 335 335 343 347 343 342 346 345 345 343 344 344 347 348 344 340 341 345 348 350 359 13 354 357 343 338 333 350 345 347 348 348 342 337 333 332 331 328 348 7 1 351 343 357 8 11 15 22 33 47 40 49 43 38 40 42 35 40 47 62 69 70 81 93 99 98 89 87
323 330 329 329 332 333 337 338 337 333 335 340 341 341 337 337 335 334 333 334 333 337 342 345 342 344 344 344 344 341 342 346 348 347 343 342 347 348 352 346 354 348 352 344 332 329 354 353 355 349 351 343 340 334 332 324 336 12 5 5 4 5 4 1 5 7 14 16 35 52 59 66 54 49 42 42 38 42 44 59 66 75 87 99 90 81 78
332 329 328 331 332 336 337 337 332 332 337 336 339 338 335 335 337 334 334 331 334 336 339 343 348 341 342 343 342 341 343 346 347 349 351 353 344 345 351 347 346 343 344 337 330 340 2 354 355 352 350 343 339 336 333 334 357 4 10 8 8 4 7 4 8 4 4 2 9 72 74 72 62 58 50 54 43 46 57 62 65 74 94 87 86 79 79
329 330 331 330 331 335 336 331 332 334 333 333 337 335 335 337 336 337 335 333 335 336 339 339 342 343 345 345 345 344 345 346 346 346 346 355 348 352 356 340 335 341 343 337 333 349 360 358 350 351 342 344 342 340 341 358 358 1 8 12 11 8 10 5 358 358 5 9 12 13 43 69 67 71 67 65 64 55 53 62 74 72 70 67 79 87 92
328 328 329 329 331 331 328 330 332 333 331 333 334 332 337 339 339 338 334 332 333 337 338 337 341 346 344 345 347 346 346 347 347 348 344 338 342 357 2 345 334 342 343 338 330 355 3 355 350 341 338 344 347 348 357 5 2 3 6 10 10 7 7 1 2 4 2 3 5 22 30 29 36 54 63 62 62 62 65 65 71 77 83 73 68 71 77
326 328 330 333 326 323 328 334 333 333 332 331 330 333 340 342 340 338 333 330 334 337 337 336 338 343 344 345 347 346 345 348 348 346 349 345 341 340 349 343 343 344 344 336 333 359 3 354 345 344 343 346 352 358 10 9 7 7 7 8 12 11 9 7 4 0 355 359 4 11 29 45 46 37 35 34 36 49 54 60 59 66 73 82 83 84 81
326 328 323 316 319 330 334 327 323 327 329 331 327 340 351 344 340 336 332 330 335 338 337 333 333 344 349 344 343 342 345 349 347 351 359 349 337 328 335 341 341 343 342 339 352 357 3 351 349 347 345 349 359 9 14 12 12 11 10 10 13 12 9 2 359 6 6 0 355 8 17 30 37 40 40 48 43 39 31 40 61 59 57 59 61 67 75
322 318 317 321 331 335 326 318 329 336 334 329 335 339 339 339 339 335 330 331 335 337 336 331 337 349 350 349 346 343 344 346 346 352 353 347 342 339 339 342 344 346 347 345 354 359 2 355 354 351 348 352 5 14 14 13 12 13 9 10 8 10 3 3 4 3 9 9 8 12 22 27 32 30 33 41 40 37 36 34 42 57 59 58 58 58 58
312 312 316 336 331 313 308 328 343 328 324 337 340 331 333 335 336 330 331 332 334 336 335 336 343 343 343 350 351 348 349 345 340 345 355 348 347 345 346 349 347 349 348 347 355 357 360 0 0 357 354 1 8 14 16 17 14 15 10 8 11 7 6 7 5 2 13 14 13 9 14 19 23 28 30 32 35 34 36 38 35 35 51 59 58 56 54
309 320 342 335 309 309 330 346 329 319 336 344 333 330 334 337 331 331 338 334 336 337 335 337 343 338 344 359 356 347 347 353 346 338 344 349 351 348 348 346 347 351 352 350 354 353 359 3 2 1 1 5 7 8 16 20 19 16 13 13 10 7 4 1 8 9 12 16 19 18 18 20 22 24 27 30 31 31 33 37 34 30 25 39 52 55 58
331 350 326 306 311 328 341 333 322 331 333 330 330 338 353 342 332 337 334 332 339 335 333 339 339 338 342 346 349 347 347 347 344 347 347 349 352 351 352 351 349 352 356 354 353 355 359 3 5 3 3 3 6 9 11 15 23 19 15 13 12 7 6 1 358 13 18 17 23 20 15 19 23 20 25 32 30 34 36 34 32 25 25 28 29 33 33
327 310 293 302 320 332 328 317 321 333 328 337 344 350 348 344 338 331 327 340 339 334 336 339 339 339 342 343 348 344 347 348 344 352 350 352 355 354 359 356 353 354 355 356 357 357 358 2 5 4 2 3 9 10 10 13 18 20 15 13 12 12 9 9 4 9 19 14 16 21 20 20 24 25 24 29 31 33 32 33 31 29 25 25 25 26 30
273 267 287 316 313 319 317 319 332 335 339 354 348 353 354 340 327 325 326 347 341 333 341 339 336 341 340 342 347 342 348 348 345 348 351 354 355 358 360 1 1 357 359 359 359 359 1 2 3 6 7 8 9 10 10 13 18 22 19 16 14 11 13 14 9 8 14 15 13 15 18 21 23 25 23 26 32 35 35 34 35 34 30 26 23 23 25